Location: *
(33.3200°N, 8.3381°W)
Time: 13:14:37
(UTC+00:00)

SL-24 R/B - RUBIN 2 - Visible Passes

Search period start: 06 August 2020 00:00
Search period end: 16 August 2020 00:00
Orbit: 568 x 1027 km, 64.6° (Epoch: 05 August)

Date Brightness Start Highest point End Pass type
(mag) Time Alt. Az. Time Alt. Az. Time Alt. Az.
06 Aug 6.5 20:44:30 10° NNE 20:47:26 13° NE 20:50:18 10° ENE visible
06 Aug 4.7 22:26:09 10° NNW 22:31:50 62° NNE 22:31:50 62° NNE visible
07 Aug 6.9 00:12:11 10° WNW 00:12:42 11° WNW 00:12:42 11° WNW visible
07 Aug 6.6 20:17:07 10° NNE 20:18:22 11° NE 20:19:36 10° NE visible
07 Aug 4.7 21:57:28 10° NNW 22:03:53 54° ENE 22:03:55 54° ENE visible
07 Aug 6.6 23:42:39 10° WNW 23:44:47 17° WNW 23:44:47 17° WNW visible
08 Aug 4.9 21:28:51 10° NNW 21:35:03 43° NE 21:36:03 40° ENE visible
08 Aug 6.1 23:13:25 10° NW 23:16:54 24° W 23:16:54 24° W visible
09 Aug 5.3 21:00:17 10° NNW 21:06:11 34° NE 21:08:13 28° E visible
09 Aug 5.6 22:44:19 10° NW 22:49:06 34° W 22:49:06 34° W visible
10 Aug 5.6 20:31:47 10° N 20:37:17 28° NE 20:40:27 18° E visible
10 Aug 5.0 22:15:21 10° NW 22:21:20 47° WSW 22:21:20 47° WSW visible
11 Aug 5.9 20:03:20 10° N 20:08:21 23° NE 20:12:45 11° E visible
11 Aug 4.5 21:46:28 10° NW 21:52:50 62° WSW 21:53:37 57° SSW visible
12 Aug 4.4 21:17:39 10° NNW 21:24:08 80° WSW 21:25:59 47° SSE visible
13 Aug 4.3 20:48:53 10° NNW 20:55:25 80° ENE 20:58:24 31° SE visible
13 Aug 6.6 22:35:45 10° WNW 22:38:20 13° WSW 22:39:17 12° WSW visible
14 Aug 4.5 20:20:11 10° NNW 20:26:39 63° ENE 20:30:53 19° SE visible
14 Aug 6.4 22:05:53 10° WNW 22:09:49 18° WSW 22:11:46 15° SW visible
15 Aug 4.8 19:51:32 10° NNW 19:57:50 50° NE 20:03:26 10° SE visible
15 Aug 6.2 21:36:28 10° WNW 21:41:17 23° WSW 21:44:20 16° SW visible
